Amritsar, India

6:12 AM IST on May 29, 2015 (GMT +0530)
Amritsar | | Change Station
CLOSE
Current Station
Airport
Location: Amritsar,
Elevation: 755 ft
Nearby Weather Stations

Elev 755 ft 31.71 °N, 74.80 °E | Updated 12 minutes ago

Haze
Haze
79 °F
Feels Like 79 °F
N
0
Wind Variable Wind from North

Today
High -- | Low -- °F
--% Chance of Precip.
Yesterday
High -- | Low -- °F
Precip. -- in
5:27 AM 7:29 PM
Waxing Gibbous, 79% visible
Pressure 29.62 in
Visibility 2.2 miles
Clouds Few 4000 ft
Scattered Clouds 10000 ft
Dew Point 63 °F
Humidity 57%
Rainfall 0.00 in
Snow Depth Not available.
UV 0 out of 12
Pollen Not available.
Air Quality Not available.
Flu Activity Not available.
METAR VIAR 290030Z 00000KT 3500 HZ FEW040 SCT100 26/17 Q1003

More Conditions Fewer Conditions

Pressure 29.62 in
Visibility 2.2 miles
Clouds Few 4000 ft
Scattered Clouds 10000 ft
Dew Point 63 °F
Humidity 57%
Rainfall 0.00 in
Snow Depth Not available.
UV 0 out of 12
Pollen Not available.
Air Quality Not available.
Flu Activity Not available.
METAR VIAR 290030Z 00000KT 3500 HZ FEW040 SCT100 26/17 Q1003

More Conditions Fewer Conditions

10-Day Weather Forecast

Almanac

Astronomy

May. 29, 2015 Rise Set
Actual Time
Civil Twilight
Nautical Twilight
Astronomical Twilight
Moon
Length of Visible Light
Length of Day
Tomorrow will be .
, % of the Moon is Illuminated

Today's Extremes

Country Highs Country Lows

Community

WunderPhotos

Upload Photos

1,825,100 photos uploaded!

WunderBlogs® & News

Nearby

Air Quality

  Air Quality AQ Index Pollutant
Not available.

Snow Depth

Station Depth Elevation

Earthquake Activity

City Distance Mag. Time & Date
Minimum magnitude displayed is 2.5.

Coastal Water Temperatures

Place Temperature

Stations

Nearby Weather Stations

Station Location Temp. Windchill Dew Point Humidity Wind Precip. Elev Updated Type